Location: Castle
(40.7167°S, 175.9500°E)
Time: 19:03:07
(UTC+00:00)

Cosmos 1844 Rocket - Pass Details

Date: 04 August 2024
Orbit: 822 x 845 km, 71.0° (Epoch: 17 September)

Event Time Altitude Azimuth Distance (km) Brightness Sun altitude
Exits shadow 18:17:34 14° 237° (WSW) 2,228 4.3 -11.8°
Maximum altitude 18:18:29 14° 227° (SW) 2,199 4.4 -11.7°
Drops below altitude 10° 18:21:27 10° 195° (SSW) 2,490 4.9 -11.1°
Sets 18:25:14 0° 170° (S) 3,427 5.8 -10.4°
